#timestamp,LO_Frequency,Hit,StdDev 
1676016015.6,286047005.5,N
1676016035.4,286047004.7,N
1676016055.3,286047004.6,N
1676016075.1,286047006.1,N
1676016095.9,286047008.8,Y
1676016115.7,286047004.1,P
1676016135.5,286047005.6,P
1676016155.4,286047004.9,P
1676016175.2,286047009.2,Y
1676016195.0,286047005.8,P
1676016195.9,286047005.8,P
1676016215.8,286047004.8,P
1676016235.6,286047004.7,Y
1676016255.5,286047002.1,P
1676016275.3,286047002.3,N
1676016295.1,286047001.0,N
1676016315.9,286047000.1,N
1676016335.7,286047004.9,N
1676016355.5,286047014.2,Y
1676016375.4,286047015.2,P
1676016395.2,286047012.3,N
1676016415.1,286047006.9,N
1676016416.0,286047006.9,N
1676016435.8,286047003.2,N
1676016455.6,286047000.1,N
1676016475.5,286047000.4,N
1676016495.3,286046999.3,N
1676016515.1,286046998.4,N
1676016535.9,286046995.0,N
1676016555.7,286046995.3,N
1676016575.6,286046996.0,N
1676016595.4,286046995.8,N
1676016615.2,286046997.8,N
1676016635.1,286046998.3,N
1676016636.0,286046998.3,N
1676016655.8,286047001.4,N
1676016675.6,286047000.7,N
1676016695.5,286046999.4,N
1676016715.3,286046995.2,N
1676016735.2,286046993.3,N
1676016755.9,286046996.4,N
1676016775.7,286046994.3,N
1676016795.6,286046992.6,N
1676016815.4,286046990.7,N
1676016835.2,286046988.6,N
1676016855.1,286046989.3,N
1676016856.0,286046989.3,N
1676016875.8,286046989.4,N
1676016895.7,286046987.1,N
1676016915.5,286046989.6,N
1676016935.3,286046987.6,N
1676016955.2,286046989.0,N
1676016975.9,286046989.1,N
1676016995.7,286046989.1,N
1676017015.6,286046989.6,N
1676017035.4,286046989.5,N
1676017055.3,286046991.6,N
1676017075.1,286046986.9,Y
1676017076.0,286046986.9,P
1676017095.8,286046996.1,N
1676017115.7,286046995.9,N
1676017135.5,286046995.2,N
1676017155.3,286046996.2,N
1676017175.2,286046996.2,N
1676017195.0,286046993.9,N
1676017195.9,286046993.9,N
1676017215.8,286046993.5,N
1676017235.6,286046993.8,N
1676017255.4,286046994.7,N
1676017275.3,286046994.4,N
1676017295.1,286046994.1,N
1676017315.8,286046993.7,N
1676017335.7,286046991.9,Y
1676017355.5,286046996.9,P
1676017375.4,286046995.3,P
1676017395.2,286046995.6,P
1676017415.0,286046998.0,N
1676017415.9,286046998.0,N
1676017435.8,286046994.9,Y
1676017455.6,286046998.1,P
1676017475.4,286046999.9,N
1676017495.3,286047000.2,N
1676017515.1,286046998.3,N
1676017535.9,286046999.4,N
1676017555.7,286046999.4,N
1676017575.5,286046997.0,N
1676017595.4,286046997.0,N
1676017615.2,286046996.5,N
1676017635.0,286046996.9,N
1676017636.0,286047011.9,Y
1676017655.8,286047002.3,P
1676017675.6,286046998.1,N
1676017695.5,286046999.4,N
1676017715.3,286047001.0,N
1676017735.1,286046998.9,N
1676017755.9,286046998.6,N
1676017775.7,286046999.4,N
1676017795.6,286046997.4,N
1676017815.4,286046999.4,N
1676017835.2,286047000.3,N
1676017855.1,286046998.4,N
1676017856.0,286046998.4,N
1676017875.8,286046997.3,N
1676017895.6,286046997.7,N
1676017915.5,286046999.6,N
1676017935.3,286046998.6,N
1676017955.1,286046999.3,N
1676017975.9,286046998.8,N
1676017995.7,286046998.8,N
1676018015.6,286046999.2,N
1676018035.4,286046999.0,N
1676018055.2,286046998.1,N
1676018075.1,286046999.0,N
1676018076.0,286046999.0,N
1676018095.8,286046999.4,N
1676018115.7,286046999.2,N
1676018135.5,286047000.8,N
1676018155.3,286046998.7,N
1676018175.2,286046996.6,Y
1676018195.0,286046997.0,P
1676018195.9,286046997.0,N
1676018215.8,286046999.6,N
1676018235.6,286046998.4,N
1676018255.4,286047000.6,N
1676018275.3,286046998.5,N
1676018295.1,286046997.0,N
1676018315.8,286046995.3,Y
1676018335.7,286046999.3,P
1676018355.5,286046996.6,P
1676018375.4,286046998.1,N
1676018395.2,286046999.4,N
1676018415.0,286047000.1,N
1676018415.9,286047000.1,N
1676018435.8,286047000.3,N
1676018455.6,286047002.7,N
1676018475.4,286047002.4,N
1676018495.3,286047002.8,N
1676018515.1,286047000.7,N
1676018535.9,286046998.5,N
1676018555.7,286047000.7,N
1676018575.5,286046999.1,N
1676018595.4,286046998.8,N
1676018615.2,286046996.6,N
1676018635.0,286046997.4,N
1676018635.9,286046997.4,N
1676018655.8,286046999.5,N
1676018675.6,286046997.4,N
1676018695.5,286046997.1,N
1676018715.3,286046999.6,N
1676018735.1,286046999.6,N
1676018755.9,286046999.6,N
1676018775.7,286046996.7,N
1676018795.5,286046999.9,N
1676018815.4,286046998.1,N
1676018835.2,286046997.3,N
1676018855.1,286046995.8,N
1676018856.0,286046995.8,N
1676018875.8,286046995.6,N
1676018895.6,286046996.2,N
1676018915.5,286046993.3,Y
1676018935.3,286046996.3,P
1676018955.1,286046996.4,N
1676018975.9,286046994.0,P
1676018995.7,286046991.9,Y
1676019015.6,286046994.0,P
1676019035.4,286046995.9,P
1676019055.2,286046996.4,P
1676019075.1,286046996.3,Y
1676019076.0,286046996.3,P
1676019095.8,286046998.6,P
1676019115.6,286046998.4,N
1676019135.5,286046999.6,N
1676019155.3,286046998.9,N
1676019175.2,286046998.8,N
1676019195.9,286046996.5,N
1676019215.7,286046998.5,N
1676019235.6,286046998.1,N
1676019255.4,286047001.1,N
1676019275.2,286046998.1,N
1676019295.1,286046999.4,N
1676019296.0,286046999.4,N
1676019315.8,286046999.0,N
1676019335.7,286046997.2,N
1676019355.5,286046997.0,N
1676019375.3,286046996.5,N
1676019395.2,286046996.7,N
1676019415.9,286046997.4,N
1676019435.7,286046994.9,Y
1676019455.6,286046999.5,P
1676019475.4,286046996.9,P
1676019495.3,286046999.3,N
1676019515.1,286046999.3,N
1676019516.0,286046999.3,N
1676019535.8,286046999.1,N
1676019555.7,286046998.4,N
1676019575.5,286047002.4,N
1676019595.3,286046999.8,N
